Time,TemperatureF,DewpointF,PressureIn,WindDirection,WindDirectionDegrees,WindSpeedMPH,WindSpeedGustMPH,Humidity,HourlyPrecipIn,Conditions,Clouds,dailyrainin,SoftwareType,DateUTC
2013-06-28 00:43:00,79.0,73.0,29.97,SE,125,0.0,0.0,83,0.00,,,0.00,,2013-06-28 04:43:00,
2013-06-28 01:11:00,79.0,74.0,29.98,SE,125,0.0,0.0,84,0.00,,,0.00,,2013-06-28 05:11:00,
2013-06-28 01:53:00,78.0,73.0,29.97,SE,125,0.0,0.0,86,0.00,,,0.00,,2013-06-28 05:53:00,
2013-06-28 02:02:00,78.0,73.0,29.97,SE,125,0.0,0.0,86,0.00,,,0.00,,2013-06-28 06:02:00,
2013-06-28 02:12:00,78.0,73.0,29.97,SE,125,0.0,0.0,86,0.00,,,0.00,,2013-06-28 06:12:00,
2013-06-28 02:33:00,78.0,73.0,29.96,SE,125,0.0,0.0,86,0.00,,,0.00,,2013-06-28 06:33:00,
2013-06-28 03:01:00,78.0,73.0,29.96,SE,125,0.0,0.0,86,0.00,,,0.00,,2013-06-28 07:01:00,
2013-06-28 03:11:00,78.0,74.0,29.96,SE,125,0.0,0.0,87,0.00,,,0.00,,2013-06-28 07:11:00,
2013-06-28 03:22:00,78.0,74.0,29.96,SE,125,0.0,0.0,87,0.00,,,0.00,,2013-06-28 07:22:00,
2013-06-28 03:33:00,77.0,73.0,29.96,SE,125,0.0,0.0,88,0.00,,,0.00,,2013-06-28 07:33:00,
2013-06-28 03:43:00,77.0,73.0,29.96,SE,125,0.0,0.0,88,0.00,,,0.00,,2013-06-28 07:43:00,
2013-06-28 03:52:00,77.0,74.0,29.96,SE,125,0.0,0.0,89,0.00,,,0.00,,2013-06-28 07:52:00,
2013-06-28 04:02:00,77.0,74.0,29.96,South,191,4.0,4.0,89,0.00,,,0.00,,2013-06-28 08:02:00,
2013-06-28 04:11:00,77.0,74.0,29.95,South,177,0.0,0.0,90,0.00,,,0.00,,2013-06-28 08:11:00,
2013-06-28 04:22:00,77.0,74.0,29.95,South,177,0.0,0.0,90,0.00,,,0.00,,2013-06-28 08:22:00,
2013-06-28 04:33:00,77.0,74.0,29.95,South,177,0.0,0.0,90,0.00,,,0.00,,2013-06-28 08:33:00,
2013-06-28 04:43:00,77.0,74.0,29.95,South,177,0.0,0.0,91,0.00,,,0.00,,2013-06-28 08:43:00,
2013-06-28 05:02:00,77.0,74.0,29.94,South,177,0.0,0.0,91,0.00,,,0.00,,2013-06-28 09:02:00,
2013-06-28 05:33:00,76.0,74.0,29.95,South,177,0.0,0.0,92,0.00,,,0.00,,2013-06-28 09:33:00,
2013-06-28 05:52:00,76.0,74.0,29.95,SSE,160,1.0,2.0,92,0.00,,,0.00,,2013-06-28 09:52:00,
2013-06-28 07:43:00,76.0,75.0,29.95,SE,127,0.0,0.0,96,0.00,,,0.00,,2013-06-28 11:43:00,
2013-06-28 08:43:00,79.0,75.0,29.96,North,359,0.0,0.0,87,0.00,,,0.00,,2013-06-28 12:43:00,
2013-06-28 10:02:00,83.0,75.0,29.95,South,191,0.0,0.0,77,0.00,,,0.00,,2013-06-28 14:02:00,
2013-06-28 10:33:00,84.0,74.0,29.94,South,190,0.0,0.0,72,0.00,,,0.00,,2013-06-28 14:33:00,
2013-06-28 10:44:00,84.0,74.0,29.94,South,190,0.0,0.0,72,0.00,,,0.00,,2013-06-28 14:44:00,
2013-06-28 11:02:00,85.0,75.0,29.94,South,190,0.0,0.0,71,0.00,,,0.00,,2013-06-28 15:02:00,
2013-06-28 11:11:00,85.0,73.0,29.93,SSE,165,0.0,0.0,68,0.00,,,0.00,,2013-06-28 15:11:00,
2013-06-28 11:52:00,86.0,73.0,29.94,SSW,207,0.0,0.0,65,0.00,,,0.00,,2013-06-28 15:52:00,
2013-06-28 12:01:00,87.0,73.0,29.93,SSW,207,0.0,0.0,64,0.00,,,0.00,,2013-06-28 16:01:00,
2013-06-28 12:33:00,88.0,72.0,29.92,SW,215,0.0,0.0,60,0.00,,,0.00,,2013-06-28 16:33:00,
2013-06-28 12:44:00,88.0,72.0,29.91,SW,215,0.0,0.0,60,0.00,,,0.00,,2013-06-28 16:44:00,
2013-06-28 13:33:00,89.0,72.0,29.91,SW,215,0.0,0.0,57,0.00,,,0.00,,2013-06-28 17:33:00,
2013-06-28 13:44:00,89.0,72.0,29.90,SW,215,0.0,0.0,57,0.00,,,0.00,,2013-06-28 17:44:00,
2013-06-28 14:22:00,91.0,72.0,29.88,SW,215,0.0,0.0,54,0.00,,,0.00,,2013-06-28 18:22:00,
2013-06-28 15:11:00,85.0,73.0,29.88,WNW,295,5.0,6.0,67,0.00,,,0.00,,2013-06-28 19:11:00,
2013-06-28 15:22:00,83.0,74.0,29.88,SW,214,0.0,0.0,75,0.17,,,0.00,,2013-06-28 19:22:00,
2013-06-28 15:43:00,81.0,74.0,29.89,SW,214,0.0,0.0,80,0.17,,,0.00,,2013-06-28 19:43:00,
2013-06-28 16:43:00,85.0,76.0,29.86,WNW,300,2.0,3.0,75,0.00,,,0.00,,2013-06-28 20:43:00,
2013-06-28 17:43:00,76.0,71.0,29.87,WNW,290,1.0,1.0,84,0.00,,,0.00,,2013-06-28 21:43:00,
2013-06-28 17:53:00,75.0,71.0,29.87,WNW,290,0.0,0.0,86,0.00,,,0.00,,2013-06-28 21:53:00,
2013-06-28 18:34:00,75.0,73.0,29.88,ENE,65,0.0,0.0,95,0.10,,,0.00,,2013-06-28 22:34:00,
2013-06-28 18:52:00,75.0,74.0,29.88,ESE,114,0.0,0.0,96,0.10,,,0.00,,2013-06-28 22:52:00,
2013-06-28 19:02:00,75.0,74.0,29.88,SE,124,0.0,0.0,97,0.10,,,0.00,,2013-06-28 23:02:00,
2013-06-28 19:23:00,75.0,74.0,29.87,SE,124,0.0,0.0,97,0.02,,,0.00,,2013-06-28 23:23:00,
2013-06-28 19:34:00,75.0,74.0,29.86,East,82,1.0,0.0,98,0.02,,,0.00,,2013-06-28 23:34:00,
2013-06-28 19:43:00,75.0,74.0,29.86,East,98,1.0,0.0,98,0.02,,,0.00,,2013-06-28 23:43:00,
2013-06-28 19:53:00,75.0,74.0,29.86,SSE,156,1.0,2.0,98,0.02,,,0.00,,2013-06-28 23:53:00,
2013-06-28 20:02:00,75.0,75.0,29.85,East,86,0.0,0.0,99,0.02,,,0.00,,2013-06-29 00:02:00,
2013-06-28 20:11:00,75.0,74.0,29.86,SSE,160,0.0,0.0,98,0.02,,,0.00,,2013-06-29 00:11:00,
2013-06-28 20:23:00,75.0,74.0,29.86,SSE,160,0.0,0.0,98,0.02,,,0.00,,2013-06-29 00:23:00,
2013-06-28 20:33:00,75.0,74.0,29.86,SSE,160,0.0,0.0,98,0.02,,,0.00,,2013-06-29 00:33:00,
2013-06-28 20:42:00,75.0,75.0,29.87,SSE,160,0.0,0.0,99,0.01,,,0.00,,2013-06-29 00:42:00,
2013-06-28 20:52:00,75.0,75.0,29.87,SSE,160,0.0,0.0,99,0.01,,,0.00,,2013-06-29 00:52:00,
2013-06-28 21:01:00,75.0,75.0,29.87,SSE,160,0.0,0.0,99,0.01,,,0.00,,2013-06-29 01:01:00,
2013-06-28 21:11:00,75.0,75.0,29.87,SSE,160,0.0,0.0,99,0.01,,,0.00,,2013-06-29 01:11:00,
2013-06-28 21:22:00,75.0,75.0,29.87,SSE,160,0.0,0.0,99,0.01,,,0.00,,2013-06-29 01:22:00,
2013-06-28 21:32:00,75.0,75.0,29.87,SSE,160,0.0,0.0,99,0.01,,,0.00,,2013-06-29 01:32:00,
2013-06-28 21:42:00,75.0,75.0,29.87,SSE,160,0.0,0.0,99,0.01,,,0.00,,2013-06-29 01:42:00,
2013-06-28 21:52:00,75.0,75.0,29.87,SSE,160,0.0,0.0,99,0.01,,,0.00,,2013-06-29 01:52:00,
2013-06-28 22:01:00,75.0,75.0,29.87,SSE,160,0.0,0.0,99,0.01,,,0.00,,2013-06-29 02:01:00,
2013-06-28 22:51:00,75.0,75.0,29.90,South,170,0.0,0.0,100,0.00,,,0.00,,2013-06-29 02:51:00,
2013-06-28 23:01:00,75.0,75.0,29.90,South,170,0.0,0.0,100,0.00,,,0.00,,2013-06-29 03:01:00,
2013-06-28 23:11:00,75.0,75.0,29.90,SSE,148,0.0,0.0,100,0.00,,,0.00,,2013-06-29 03:11:00,
2013-06-28 23:21:00,75.0,75.0,29.90,SSE,148,0.0,0.0,100,0.00,,,0.00,,2013-06-29 03:21:00,
2013-06-28 23:32:00,75.0,75.0,29.90,SSE,148,0.0,0.0,100,0.00,,,0.00,,2013-06-29 03:32:00,
2013-06-28 23:41:00,74.0,74.0,29.90,ENE,73,0.0,0.0,100,0.00,,,0.00,,2013-06-29 03:41:00,
2013-06-28 23:51:00,74.0,74.0,29.90,ENE,73,0.0,0.0,100,0.00,,,0.00,,2013-06-29 03:51:00,